Погода в Бангоре

США     44°48′03″N   68°46′40″W
темп.,
°C
ветер,
м/с
пор.,
м/с
влажн.,
%
обл.,
%
осадки,
мм/ч
давл.,
гПа
погр.,
м
20 апреля, вт
вт2023:00+6ююз22917 0.0 100922
02:00+5ю11965 0.3 100910
05:00+4зюз11955 0.0 100910
08:00+9ююз1276100 0.0 1009191
11:00+16ююз474428 0.0 10081438
14:00+17ююз6942100 0.0 10072227
17:00+13зсз61066100 0.4 10091436
20:00+7зюз2375100 0.4 101171
21 апреля, ср
ср2123:00+6з31161100 0.0 1013575
02:00+3з2562100 0.0 1014107
05:00+3зюз1164100 0.0 101428
08:00+5ююв1171100 0.4 1014229
11:00+6юв377195 0.0 1011680
14:00+14ю6136259 0.0 10061257
17:00+13ю7167761 0.0 10021124
20:00+10ю6169099 0.0 999960
22 апреля, чт
чт2223:00+10ю61592100 0.3 994940
02:00+9юз4896100 1.1 991767
05:00+1зсз51186100 0.1 990643
08:00+1з61284100 0.2 9921156
11:00+4з71256100 0.3 9921677
14:00+5з81350100 0.3 9942188
17:00+5з71253100 0.2 9961973
20:00+2з6156066 0.3 9981685
23 апреля, пт
пт2323:00+2з6155592 0.0 9991738
02:00+1з6146244 0.0 9991378
05:00+1зюз6147275 0.0 10001354
08:00+3зюз6147697 0.1 10001636
11:00+7зсз7124383 0.1 10001744
14:00+10зсз8134022 0.1 10001979
17:00+10зсз716505 0.0 10021992
20:00+7з717585 0.0 10031555
24 апреля, сб
сб2423:00+5з614680 0.0 1004922
02:00+4з513680 0.0 1005741
05:00+4з513735 0.0 10061009
08:00+7зсз614585 0.0 10081264
11:00+12сз7134053 0.0 10091602
14:00+15сз712368 0.0 10091907
17:00+15сз69505 0.0 10111830
20:00+8з22784 0.0 101319